Trenton, NJ

11:44 AM EST on February 19, 2017 (GMT -0500)
McGuire Air Force Base

Weather History for KWRI - March, 2013

Change the Weather History Date:

Friday, March 15, 2013

  Actual Average Record
Temperature  
Mean Temperature 38 °F -  
Max Temperature 50 °F 48 °F 73 °F (2002)
Min Temperature 28 °F 29 °F 24 °F (1998)
Degree Days  
Heating Degree Days 26    
Moisture  
Dew Point 18 °F    
Average Humidity 43    
Maximum Humidity 60    
Minimum Humidity 34    
Precipitation  
Precipitation 0.00 in - - ()
Sea Level Pressure  
Sea Level Pressure 29.89 in    
Wind  
Wind Speed 13 mph (West)    
Max Wind Speed 24 mph    
Max Gust Speed 29 mph    
Visibility 10 miles    
Events      
Averages and records for this station are not official NWS values.
T = Trace of Precipitation, MM = Missing Value Source: NWS Daily Summary

Daily Weather History Graph

Daily Weather History Graph

Search for Another Location

Airport or City:

Trip Planner

Search our weather history database for the weather conditions in past years. The results will help you decide how hot, cold, wet, or windy it might be!

Date:

Astronomy

Mar. 15, 2013 Rise Set
Actual Time 7:09 AM EDT 7:05 PM EDT
Civil Twilight 6:42 AM EDT 7:32 PM EDT
Nautical Twilight 6:11 AM EDT 8:03 PM EDT
Astronomical Twilight 5:39 AM EDT 8:35 PM EDT
Moon 8:58 AM EDT (3/15) 11:17 PM EDT (3/15)
Length of Visible Light 12h 49m
Length of Day
11h 55m
Waxing Crescent, 15% of the Moon is Illuminated
Mar 15
Waxing Crescent
Mar 19
First Quarter
Mar 27
Full
Apr 3
Last Quarter
Apr 10
New

Hourly Weather History & Observations

Time (EDT) Temp. Windchill Dew Point Humidity Pressure Visibility Wind Dir Wind Speed Gust Speed Precip Events Conditions
12:55 AM 32.7 °F 22.5 °F 10.2 °F 39% 29.99 in 10.0 mi WNW 15.0 mph - N/A   Clear
1:55 AM 31.6 °F 22.6 °F 10.8 °F 42% 30.00 in 10.0 mi WNW 11.5 mph - N/A   Clear
2:55 AM 31.1 °F 20.9 °F 10.6 °F 42% 30.00 in 10.0 mi NW 13.8 mph - N/A   Clear
3:55 AM 29.8 °F 22.2 °F 11.3 °F 46% 30.00 in 10.0 mi WNW 8.1 mph - N/A   Clear
4:55 AM 29.3 °F 20.8 °F 11.5 °F 47% 30.00 in 10.0 mi WNW 9.2 mph - N/A   Clear
5:55 AM 29.1 °F 21.3 °F 11.7 °F 48% 30.00 in 10.0 mi WNW 8.1 mph - N/A   Clear
6:55 AM 28.2 °F 22.0 °F 12.0 °F 51% 30.01 in 10.0 mi West 5.8 mph - N/A   Clear
7:55 AM 28.9 °F 21.9 °F 12.4 °F 50% 30.02 in 10.0 mi West 6.9 mph - N/A   Clear
8:55 AM 32.7 °F 25.7 °F 13.6 °F 45% 30.01 in 10.0 mi West 8.1 mph - N/A   Clear
9:55 AM 35.6 °F 29.9 °F 14.4 °F 42% 29.99 in 10.0 mi WNW 6.9 mph - N/A   Mostly Cloudy
10:55 AM 38.8 °F 31.6 °F 16.7 °F 41% 29.96 in 10.0 mi WSW 11.5 mph - N/A   Mostly Cloudy
11:55 AM 42.3 °F 33.6 °F 18.7 °F 39% 29.91 in 10.0 mi SW 19.6 mph 25.3 mph N/A   Scattered Clouds
12:55 PM 43.3 °F 35.8 °F 19.4 °F 38% 29.89 in 10.0 mi West 16.1 mph 23.0 mph N/A   Overcast
1:55 PM 43.7 °F 34.7 °F 20.8 °F 40% 29.86 in 10.0 mi West 23.0 mph 27.6 mph N/A   Overcast
2:55 PM 45.3 °F 37.1 °F 21.9 °F 40% 29.83 in 10.0 mi WSW 21.9 mph 27.6 mph N/A   Overcast
3:55 PM 48.6 °F - 22.5 °F 36% 29.78 in 10.0 mi WSW 24.2 mph 27.6 mph N/A   Overcast
4:55 PM 49.6 °F - 22.5 °F 34% 29.75 in 10.0 mi West 19.6 mph 28.8 mph N/A   Mostly Cloudy
5:55 PM 49.1 °F - 21.9 °F 34% 29.73 in 10.0 mi WSW 18.4 mph - N/A   Clear
6:55 PM 47.5 °F - 22.3 °F 37% 29.73 in 10.0 mi WSW 16.1 mph - N/A   Clear
7:55 PM 47.5 °F - 23.5 °F 39% 29.74 in 10.0 mi WSW 11.5 mph - N/A   Overcast
8:55 PM 45.3 °F 40.6 °F 23.9 °F 43% 29.75 in 10.0 mi SW 9.2 mph - N/A   Mostly Cloudy
9:55 PM 42.4 °F 38.1 °F 24.1 °F 48% 29.76 in 10.0 mi WSW 6.9 mph - N/A   Clear
10:55 PM 41.2 °F 38.2 °F 24.6 °F 52% 29.77 in 10.0 mi WSW 4.6 mph - N/A   Clear
11:55 PM 39.4 °F 35.2 °F 26.4 °F 60% 29.77 in 10.0 mi SW 5.8 mph - N/A   Mostly Cloudy